DLH320 NZWN-NZAA

Flight info

Callsign DLH320
Flight time 0h 44m
Altitude 31000
Route RUSIL Y127 OPABI Q277 DAVEE
Aircraft A320/M-SDE3FGHIRWY/LB1

Departure

Time 2026-05-04 08:06
Airport Wellington International Airport (NZWN)

Arrival

Time 2026-05-04 08:51
Airport Auckland International Airport (NZAA)
Time Latitude Longitude Altitude Speed Heading
2026-05-04 07:38 -41.32766 174.80976 27 ft 0 kts 142°
2026-05-04 07:56 -41.32764 174.80973 26 ft 3 kts 142°
2026-05-04 07:57 -41.32741 174.80956 26 ft 4 kts 157°
2026-05-04 07:57 -41.32719 174.80942 26 ft 4 kts 141°
2026-05-04 07:57 -41.32707 174.80917 26 ft 4 kts 82°
2026-05-04 07:57 -41.32715 174.80884 26 ft 3 kts 70°
2026-05-04 07:58 -41.32716 174.80878 26 ft 0 kts 72°
2026-05-04 08:02 -41.32891 174.80805 26 ft 11 kts 184°
2026-05-04 08:02 -41.32972 174.80799 26 ft 11 kts 184°
2026-05-04 08:02 -41.33049 174.80794 26 ft 11 kts 181°
2026-05-04 08:03 -41.33134 174.80792 26 ft 13 kts 183°
2026-05-04 08:03 -41.33221 174.80785 26 ft 12 kts 183°
2026-05-04 08:03 -41.33303 174.80780 26 ft 11 kts 182°
2026-05-04 08:03 -41.33379 174.80776 26 ft 10 kts 182°
2026-05-04 08:04 -41.33449 174.80772 26 ft 9 kts 182°
2026-05-04 08:04 -41.33478 174.80770 26 ft 1 kts 184°
2026-05-04 08:04 -41.33494 174.80763 26 ft 3 kts 206°
2026-05-04 08:04 -41.33506 174.80745 26 ft 2 kts 240°
2026-05-04 08:05 -41.33511 174.80727 26 ft 2 kts 249°
2026-05-04 08:05 -41.33519 174.80699 26 ft 7 kts 251°
2026-05-04 08:05 -41.33517 174.80643 26 ft 6 kts 295°
2026-05-04 08:05 -41.33483 174.80634 26 ft 6 kts
2026-05-04 08:06 -41.33320 174.80650 27 ft 61 kts
2026-05-04 08:06 -41.32625 174.80711 35 ft 134 kts
2026-05-04 08:06 -41.31628 174.80776 620 ft 144 kts
2026-05-04 08:06 -41.30632 174.80836 1519 ft 145 kts
2026-05-04 08:08 -41.21583 174.78930 5108 ft 255 kts 344°
2026-05-04 08:08 -41.19820 174.78329 5880 ft 267 kts 343°
2026-05-04 08:10 -41.03187 174.78351 11502 ft 359 kts
2026-05-04 08:11 -41.00611 174.78517 11690 ft 382 kts
2026-05-04 08:11 -40.95021 174.78958 12188 ft 416 kts
2026-05-04 08:11 -40.92116 174.79209 12811 ft 421 kts
2026-05-04 08:12 -40.89183 174.79467 13486 ft 424 kts
2026-05-04 08:12 -40.86229 174.79725 14152 ft 427 kts
2026-05-04 08:12 -40.83261 174.79982 14745 ft 429 kts
2026-05-04 08:12 -40.80272 174.80240 15301 ft 432 kts
2026-05-04 08:13 -40.77264 174.80498 15853 ft 433 kts
2026-05-04 08:13 -40.74288 174.80750 16392 ft 435 kts
2026-05-04 08:13 -40.71221 174.81004 16910 ft 438 kts
2026-05-04 08:13 -40.68212 174.81254 17403 ft 440 kts
2026-05-04 08:14 -40.65145 174.81484 17863 ft 443 kts
2026-05-04 08:14 -40.62018 174.81585 18324 ft 445 kts
2026-05-04 08:14 -40.58948 174.81571 18760 ft 448 kts 359°
2026-05-04 08:16 -40.36766 174.81263 21119 ft 462 kts
2026-05-04 08:16 -40.33544 174.81266 21418 ft 464 kts
2026-05-04 08:16 -40.30304 174.81262 21701 ft 466 kts
2026-05-04 08:17 -40.27050 174.81250 21982 ft 468 kts
2026-05-04 08:17 -40.23789 174.81233 22254 ft 470 kts
2026-05-04 08:17 -40.20511 174.81212 22513 ft 472 kts
2026-05-04 08:17 -40.17222 174.81193 22762 ft 473 kts
2026-05-04 08:19 -39.93989 174.81080 24122 ft 482 kts 359°
2026-05-04 08:19 -39.90632 174.81020 24249 ft 483 kts
2026-05-04 08:20 -39.87269 174.81003 24359 ft 484 kts
2026-05-04 08:20 -39.83918 174.81010 24477 ft 484 kts
2026-05-04 08:20 -39.80541 174.81024 24592 ft 484 kts
2026-05-04 08:20 -39.77164 174.81031 24705 ft 484 kts
2026-05-04 08:21 -39.73795 174.81028 24824 ft 484 kts
2026-05-04 08:21 -39.70428 174.81018 24946 ft 484 kts
2026-05-04 08:21 -39.67062 174.80999 25070 ft 484 kts
2026-05-04 08:21 -39.63698 174.80976 25190 ft 483 kts
2026-05-04 08:22 -39.60333 174.80966 25306 ft 483 kts
2026-05-04 08:22 -39.56977 174.80954 25428 ft 483 kts
2026-05-04 08:24 -39.33529 174.80849 26354 ft 480 kts
2026-05-04 08:24 -39.30185 174.80835 26475 ft 480 kts
2026-05-04 08:24 -39.26844 174.80822 26651 ft 479 kts
2026-05-04 08:24 -39.23522 174.80808 26961 ft 475 kts
2026-05-04 08:25 -39.20238 174.80794 27365 ft 471 kts
2026-05-04 08:25 -39.16958 174.80782 27623 ft 470 kts
2026-05-04 08:25 -39.13683 174.80770 27816 ft 471 kts
2026-05-04 08:25 -39.10405 174.80759 27960 ft 471 kts
2026-05-04 08:26 -39.07136 174.80748 27616 ft 470 kts
2026-05-04 08:27 -38.84019 174.80665 27590 ft 475 kts
2026-05-04 08:28 -38.80708 174.80653 27586 ft 475 kts
2026-05-04 08:28 -38.77403 174.80651 27594 ft 475 kts
2026-05-04 08:28 -38.74101 174.80654 27586 ft 475 kts
2026-05-04 08:28 -38.70797 174.80658 27585 ft 474 kts
2026-05-04 08:29 -38.67495 174.80660 27586 ft 474 kts
2026-05-04 08:29 -38.64195 174.80659 27587 ft 474 kts
2026-05-04 08:29 -38.60896 174.80659 27585 ft 474 kts
2026-05-04 08:31 -38.37855 174.80651 27584 ft 473 kts
2026-05-04 08:33 -38.14862 174.80640 25210 ft 469 kts
2026-05-04 08:33 -38.11600 174.80643 24603 ft 471 kts
2026-05-04 08:35 -37.90043 174.80631 20660 ft 452 kts
2026-05-04 08:35 -37.86913 174.80632 20060 ft 448 kts
2026-05-04 08:35 -37.83815 174.80647 19462 ft 444 kts
2026-05-04 08:35 -37.80742 174.80682 18848 ft 439 kts
2026-05-04 08:37 -37.63219 174.80937 14575 ft 409 kts
2026-05-04 08:37 -37.60373 174.80968 14126 ft 404 kts
2026-05-04 08:37 -37.57597 174.81002 12791 ft 395 kts
2026-05-04 08:38 -37.54867 174.81039 11417 ft 388 kts
2026-05-04 08:38 -37.52220 174.81074 10622 ft 369 kts
2026-05-04 08:38 -37.49750 174.81106 10262 ft 340 kts
2026-05-04 08:40 -37.35669 174.81289 8838 ft 279 kts
2026-05-04 08:40 -37.33731 174.81315 8718 ft 278 kts
2026-05-04 08:40 -37.31801 174.81343 8589 ft 277 kts
2026-05-04 08:41 -37.29904 174.81351 8464 ft 269 kts 359°
2026-05-04 08:41 -37.28079 174.80869 8339 ft 270 kts 341°
2026-05-04 08:41 -37.26453 174.79684 8208 ft 273 kts 323°
2026-05-04 08:41 -37.25216 174.77935 8080 ft 266 kts 304°
2026-05-04 08:42 -37.24299 174.75873 7970 ft 275 kts 301°
2026-05-04 08:42 -37.23367 174.73760 7686 ft 277 kts 301°
2026-05-04 08:42 -37.22434 174.71660 7325 ft 275 kts 302°
2026-05-04 08:42 -37.21498 174.69561 6950 ft 275 kts 302°
2026-05-04 08:43 -37.20568 174.67475 6546 ft 273 kts 302°
2026-05-04 08:43 -37.19642 174.65402 6170 ft 271 kts 302°
2026-05-04 08:43 -37.18725 174.63355 5800 ft 266 kts 302°
2026-05-04 08:43 -37.17844 174.61382 5445 ft 253 kts 302°
2026-05-04 08:44 -37.17002 174.59500 5323 ft 245 kts 302°
2026-05-04 08:44 -37.15991 174.57811 5219 ft 240 kts 319°
2026-05-04 08:46 -37.07166 174.57497 3020 ft 174 kts 57°
2026-05-04 08:46 -37.06648 174.58830 3015 ft 169 kts 71°
2026-05-04 08:46 -37.06267 174.60219 3014 ft 168 kts 71°
2026-05-04 08:46 -37.05886 174.61604 3017 ft 168 kts 70°
2026-05-04 08:47 -37.05508 174.62981 2737 ft 162 kts 71°
2026-05-04 08:47 -37.05177 174.64263 2377 ft 150 kts 72°
2026-05-04 08:47 -37.04859 174.65472 2006 ft 142 kts 70°
2026-05-04 08:47 -37.04533 174.66597 1792 ft 133 kts 70°
2026-05-04 08:48 -37.04232 174.67661 1607 ft 128 kts 71°
2026-05-04 08:48 -37.03940 174.68708 1428 ft 126 kts 71°
2026-05-04 08:48 -37.03654 174.69740 1263 ft 125 kts 71°
2026-05-04 08:48 -37.03369 174.70768 1089 ft 125 kts 71°
2026-05-04 08:49 -37.03091 174.71797 913 ft 125 kts 72°
2026-05-04 08:50 -37.01367 174.78060 27 ft 109 kts 70°
2026-05-04 08:50 -37.01175 174.78741 25 ft 58 kts 71°
2026-05-04 08:51 -37.01078 174.79092 27 ft 38 kts 70°
2026-05-04 08:51 -37.01000 174.79374 25 ft 28 kts 71°
2026-05-04 08:51 -37.00908 174.79586 29 ft 28 kts 53°
2026-05-04 08:51 -37.00809 174.79693 25 ft 12 kts 36°
2026-05-04 08:52 -37.00774 174.79724 26 ft 1 kts 34°
2026-05-04 08:52 -37.00766 174.79729 25 ft 2 kts 22°
2026-05-04 08:52 -37.00730 174.79714 27 ft 9 kts 313°
2026-05-04 08:52 -37.00739 174.79607 28 ft 14 kts 252°
2026-05-04 08:53 -37.00772 174.79494 25 ft 13 kts 248°
2026-05-04 08:54 -37.01044 174.78426 27 ft 14 kts 291°
2026-05-04 08:55 -37.00971 174.78364 30 ft 13 kts 348°
2026-05-04 08:55 -37.00887 174.78365 28 ft 12 kts
2026-05-04 08:55 -37.00811 174.78382 27 ft 9 kts 32°
2026-05-04 08:55 -37.00805 174.78429 26 ft 4 kts 107°
2026-05-04 08:57 -37.00815 174.78476 29 ft 0 kts 103°